Simultaneous Nadir Overpasses (SNOs) Predictions

Prediction of SNOs between METOP-B and TERRA Satellite Orbit:

Table of predicted SNOs for the next 14.0 days since TLE Epoch: 9/18/2021
Index Date (METOP-B) Time (METOP-B) Lat,Lon (METOP-B) SZA (METOP-B ) Date (TERRA) Time (TERRA) Lat,Lon (TERRA) SZA (TERRA ) Distance(km) Time Diff (sec)
1 09/20/2021 05:39:59 -81.24, -40.74 97.11 09/20/2021 05:41:03 -81.25, -40.61 97.06 2.25 64
2 09/20/2021 06:30:38 81.26, 127.28 83.00 09/20/2021 06:30:29 81.26, 127.11 82.97 2.78 9
3 09/23/2021 01:14:20 -81.25, 25.79 95.98 09/23/2021 01:15:15 -81.24, 25.63 95.98 2.74 55
4 09/23/2021 02:04:59 81.26,-166.25 84.12 09/23/2021 02:04:40 81.27,-166.30 84.11 1.02 19
5 09/25/2021 20:48:42 -81.25, 92.29 94.85 09/25/2021 20:49:27 -81.25, 92.21 94.84 1.42 45
6 09/25/2021 21:39:22 81.25,-100.18 85.20 09/25/2021 21:38:53 81.25,-100.13 85.18 0.98 29
7 09/28/2021 16:23:04 -81.25, 158.78 93.72 09/28/2021 16:23:39 -81.25, 158.75 93.71 0.66 35
8 09/28/2021 17:13:44 81.25, -33.73 86.32 09/28/2021 17:13:05 81.25, -33.61 86.31 2.02 39
9 10/01/2021 11:57:25 -81.25,-134.74 92.60 10/01/2021 11:57:50 -81.26,-134.75 92.59 0.63 25



Historial Predications of SNOs between METOP-B and TERRA
